EW0609 Weather Reports


Display with metric or nautical units.
time (UTC)temp
F
wind
direction
speed
MPH
gust
MPH
rain 1hr
in
rain 24hr
in
rain mn
in
humidity
%
barometer
mb
20260508125835 57 240 5.0 14.0 0.00 0.00 0.00 70 1012.5
20260508125336 56 210 6.0 16.0 0.00 0.00 0.00 70 1012.5
20260508124835 56 209 5.0 16.0 0.00 0.00 0.00 70 1012.5
20260508124336 56 178 7.0 12.0 0.00 0.00 0.00 70 1012.5
20260508123836 56 288 5.0 11.0 0.00 0.00 0.00 70 1012.7
20260508123335 56 274 4.0 9.0 0.00 0.00 0.00 70 1012.6
20260508122835 56 224 4.0 11.0 0.00 0.00 0.00 70 1012.5
20260508122335 56 202 5.0 12.0 0.00 0.00 0.00 70 1012.4
20260508121835 56 209 5.0 12.0 0.00 0.00 0.00 70 1012.2
20260508121335 56 237 6.0 13.0 0.00 0.00 0.00 70 1012.2
20260508120836 56 210 4.0 14.0 0.00 0.00 0.00 69 1012.0
20260508120334 56 210 4.0 14.0 0.00 0.00 0.00 69 1012.0
20260508120108 56 230 6.0 13.0 0.00 0.00 0.00 69 1012.0
20260508115336 56 216 7.0 13.0 0.00 0.00 0.00 69 1012.2
20260508114835 56 244 6.0 14.0 0.00 0.00 0.00 69 1012.0
20260508114335 56 217 5.0 14.0 0.00 0.00 0.00 69 1012.0
20260508113836 56 209 7.0 15.0 0.00 0.00 0.00 69 1012.0
20260508113335 56 203 8.0 15.0 0.00 0.00 0.00 69 1012.0
20260508112835 56 238 6.0 16.0 0.00 0.00 0.00 69 1012.2
20260508112337 56 228 7.0 16.0 0.00 0.00 0.00 69 1012.2
20260508112223 56 217 6.0 14.0 0.00 0.00 0.00 69 1012.2
20260508111336 56 226 6.0 14.0 0.00 0.00 0.00 69 1012.0
20260508111224 56 221 6.0 14.0 0.00 0.00 0.00 68 1012.0
20260508110338 56 206 6.0 12.0 0.00 0.00 0.00 68 1012.0
20260508105835 56 248 5.0 12.0 0.00 0.00 0.00 68 1012.2
20260508105334 56 238 5.0 13.0 0.00 0.00 0.00 68 1012.0
20260508104836 56 221 6.0 19.0 0.00 0.00 0.00 68 1012.2
20260508104335 56 212 6.0 19.0 0.00 0.00 0.00 67 1012.2
20260508103835 56 220 6.0 16.0 0.00 0.00 0.00 67 1012.3
20260508103337 56 210 8.0 14.0 0.00 0.00 0.00 68 1012.3
20260508103217 56 254 8.0 14.0 0.00 0.00 0.00 67 1012.3
20260508102335 56 214 6.0 15.0 0.00 0.00 0.00 67 1012.5
20260508101837 56 197 6.0 15.0 0.00 0.00 0.00 67 1012.3
20260508101334 56 213 6.0 12.0 0.00 0.00 0.00 66 1012.4
20260508100836 57 219 5.0 16.0 0.00 0.00 0.00 66 1012.4
20260508100335 57 220 6.0 16.0 0.00 0.00 0.00 66 1012.4
20260508100228 57 238 6.0 15.0 0.00 0.00 0.00 66 1012.3
20260508095336 57 168 8.0 15.0 0.00 0.00 0.00 66 1012.5
20260508094835 57 219 7.0 15.0 0.00 0.00 0.00 65 1012.4
20260508094722 56 227 7.0 15.0 0.00 0.00 0.00 62 1012.4
20260508093835 57 268 6.0 13.0 0.00 0.00 0.00 62 1012.4
20260508093336 57 238 5.0 13.0 0.00 0.00 0.00 62 1012.5
20260508093229 57 204 6.0 13.0 0.00 0.00 0.00 62 1012.6
20260508092336 57 234 6.0 16.0 0.00 0.00 0.00 62 1012.5
20260508091836 57 202 7.0 16.0 0.00 0.00 0.00 62 1012.6
20260508091335 57 212 6.0 15.0 0.00 0.00 0.00 62 1012.6
20260508090838 57 207 7.0 15.0 0.00 0.00 0.00 62 1012.7
20260508090623 57 206 8.0 19.0 0.00 0.00 0.00 62 1012.7
20260508090506 57 245 7.0 15.0 0.00 0.00 0.00 62 1012.7
20260508085338 57 230 7.0 19.0 0.00 0.00 0.00 61 1012.7
20260508084838 57 190 11.0 18.0 0.00 0.00 0.00 61 1012.8
20260508084335 57 169 7.0 15.0 0.00 0.00 0.00 59 1012.7
20260508083835 57 183 6.0 13.0 0.00 0.00 0.00 59 1012.8
20260508083335 57 173 6.0 14.0 0.00 0.00 0.00 59 1012.7
20260508082836 57 180 5.0 14.0 0.00 0.00 0.00 59 1012.6
20260508082335 57 196 6.0 14.0 0.00 0.00 0.00 59 1012.7
20260508081835 57 214 4.0 14.0 0.00 0.00 0.00 58 1012.7
20260508081338 57 172 7.0 15.0 0.00 0.00 0.00 58 1012.7
20260508080834 57 200 5.0 15.0 0.00 0.00 0.00 57 1012.7
20260508080335 56 233 5.0 9.0 0.00 0.00 0.00 57 1012.8
20260508075836 56 175 4.0 7.0 0.00 0.00 0.00 56 1012.7
20260508075335 56 209 4.0 9.0 0.00 0.00 0.00 55 1012.8
20260508074836 56 233 4.0 9.0 0.00 0.00 0.00 54 1012.9
20260508074337 57 217 3.0 6.0 0.00 0.00 0.00 54 1012.8
20260508073836 57 173 3.0 5.0 0.00 0.00 0.00 53 1012.9
20260508073616 57 213 2.0 6.0 0.00 0.00 0.00 53 1013.0
20260508073504 56 206 3.0 6.0 0.00 0.00 0.00 53 1013.0
20260508072334 57 202 3.0 7.0 0.00 0.01 0.00 53 1013.0
20260508071834 57 157 3.0 7.0 0.00 0.01 0.00 52 1013.0
20260508071335 57 182 3.0 6.0 0.00 0.01 0.00 52 1013.2
20260508070835 57 210 3.0 6.0 0.00 0.01 0.00 52 1013.2
20260508070335 58 228 3.0 7.0 0.00 0.01 0.00 51 1013.2
20260508070224 58 212 4.0 7.0 0.00 0.01 0.00 51 1013.3
20260508065336 58 217 4.0 7.0 0.00 0.01 0.00 50 1013.3
20260508064835 58 189 3.0 9.0 0.00 0.01 0.00 50 1013.3
20260508064726 58 209 4.0 9.0 0.00 0.01 0.00 50 1013.3
20260508063834 59 196 4.0 9.0 0.00 0.01 0.00 49 1013.4
20260508063721 59 235 2.0 9.0 0.00 0.01 0.00 48 1013.4
20260508062837 59 175 4.0 6.0 0.00 0.01 0.00 48 1013.5
20260508062337 59 182 3.0 7.0 0.00 0.01 0.00 48 1013.4
20260508061836 60 161 4.0 9.0 0.00 0.01 0.00 47 1013.5
20260508061336 60 219 3.0 9.0 0.00 0.01 0.00 47 1013.5
20260508060834 60 169 3.0 7.0 0.00 0.01 0.00 47 1013.5
20260508060335 60 202 3.0 11.0 0.00 0.01 0.00 46 1013.5
20260508055837 61 219 4.0 11.0 0.00 0.01 0.00 46 1013.5
20260508055335 61 159 5.0 11.0 0.00 0.01 0.00 46 1013.4
20260508054836 61 154 5.0 11.0 0.00 0.01 0.00 46 1013.6
20260508054335 61 216 5.0 11.0 0.00 0.01 0.00 46 1013.5
20260508053838 62 158 4.0 11.0 0.00 0.01 0.00 45 1013.7
20260508053336 61 151 5.0 10.0 0.00 0.01 0.00 46 1013.7
20260508052835 61 159 4.0 10.0 0.00 0.01 0.00 45 1013.7
20260508052336 62 190 4.0 10.0 0.00 0.01 0.00 44 1013.8
20260508051835 62 200 5.0 11.0 0.00 0.01 0.00 44 1014.0
20260508051335 62 166 6.0 11.0 0.00 0.01 0.00 44 1014.0
20260508050834 61 186 4.0 9.0 0.00 0.01 0.00 44 1014.0
20260508050334 61 199 4.0 7.0 0.00 0.01 0.00 44 1014.0
20260508045836 61 138 4.0 7.0 0.00 0.01 0.01 43 1014.2
20260508045335 61 176 3.0 6.0 0.00 0.01 0.01 43 1014.0
20260508044834 61 186 2.0 6.0 0.00 0.01 0.01 43 1014.2
20260508044334 62 169 2.0 9.0 0.00 0.01 0.01 42 1014.2
20260508043836 62 206 3.0 9.0 0.00 0.01 0.01 42 1014.3
20260508043334 62 166 4.0 7.0 0.00 0.01 0.01 42 1014.3
20260508042835 62 148 3.0 7.0 0.00 0.01 0.01 41 1014.3
20260508042335 62 185 4.0 7.0 0.00 0.01 0.01 41 1014.3
20260508041834 62 141 4.0 7.0 0.00 0.01 0.01 40 1014.2
20260508041334 62 164 3.0 5.0 0.00 0.01 0.01 40 1014.2
20260508040837 62 162 2.0 4.0 0.00 0.01 0.01 39 1014.2
20260508040718 62 147 2.0 4.0 0.00 0.01 0.01 40 1014.2
20260508040109 63 145 2.0 4.0 0.00 0.01 0.01 38 1014.0
20260508040001 62 148 0.0 4.0 0.00 0.01 0.01 38 1014.2
20260508035221 63 155 2.0 4.0 0.00 0.01 0.01 37 1014.2
20260508034334 63 172 2.0 4.0 0.00 0.01 0.01 37 1014.2
20260508033835 63 133 1.0 4.0 0.00 0.01 0.01 36 1014.2
20260508033334 63 180 2.0 5.0 0.00 0.01 0.01 36 1014.2
20260508032834 64 176 1.0 5.0 0.00 0.01 0.01 35 1014.2
20260508032718 64 178 2.0 4.0 0.00 0.01 0.01 35 1014.0
20260508031837 64 166 1.0 4.0 0.00 0.01 0.01 35 1013.9
20260508031335 65 147 1.0 4.0 0.00 0.01 0.01 34 1013.7
20260508030834 64 162 2.0 4.0 0.00 0.01 0.01 34 1013.8
20260508030336 65 152 2.0 4.0 0.00 0.01 0.01 34 1013.8
20260508025834 64 162 2.0 4.0 0.00 0.01 0.01 35 1013.6
20260508025335 64 165 0.0 3.0 0.00 0.01 0.01 36 1013.5
20260508025223 64 147 1.0 3.0 0.00 0.01 0.01 37 1013.5
20260508024334 64 155 0.0 0.0 0.00 0.01 0.01 36 1013.3
20260508023836 64 149 0.0 0.0 0.00 0.01 0.01 36 1013.3
20260508023716 64 148 0.0 0.0 0.00 0.01 0.01 36 1013.3
20260508022834 64 158 0.0 0.0 0.00 0.01 0.01 35 1013.3
20260508022334 65 182 0.0 0.0 0.00 0.01 0.01 35 1013.3
20260508021834 66 182 0.0 2.0 0.00 0.01 0.01 35 1013.2
20260508021334 67 179 0.0 2.0 0.00 0.01 0.01 33 1013.2
20260508020837 67 196 0.0 4.0 0.00 0.01 0.01 32 1013.0
20260508020334 68 186 1.0 4.0 0.00 0.01 0.01 31 1012.9
20260508015835 69 178 1.0 3.0 0.00 0.01 0.01 30 1013.0
20260508015334 70 166 1.0 5.0 0.00 0.01 0.01 30 1012.9
20260508014834 70 162 2.0 5.0 0.00 0.01 0.01 30 1012.8
20260508014334 70 216 2.0 5.0 0.00 0.01 0.01 30 1012.9
20260508013834 70 175 2.0 6.0 0.00 0.01 0.01 29 1012.7
20260508013335 71 220 4.0 9.0 0.00 0.01 0.01 29 1012.9
20260508012836 71 209 3.0 10.0 0.00 0.01 0.01 29 1012.9
20260508012721 71 212 4.0 13.0 0.00 0.01 0.01 29 1012.9
20260508011836 71 195 6.0 13.0 0.00 0.01 0.01 29 1012.8
20260508011334 72 209 4.0 11.0 0.00 0.01 0.01 28 1012.7
20260508011224 71 197 2.0 11.0 0.00 0.01 0.01 30 1012.8
20260508010334 71 219 2.0 11.0 0.00 0.01 0.01 29 1012.7
20260508005834 72 214 4.0 6.0 0.00 0.01 0.01 31 1012.8
20260508005716 72 210 3.0 16.0 0.00 0.01 0.01 27 1012.6
20260508005021 73 212 4.0 13.0 0.00 0.01 0.01 27 1012.7
20260508005014 73 213 6.0 13.0 0.00 0.01 0.01 26 1012.7
20260508004927 73 210 4.0 16.0 0.00 0.01 0.01 30 1012.6
20260508003334 73 241 6.0 13.0 0.00 0.01 0.01 27 1012.7
20260508002834 73 180 6.0 13.0 0.00 0.01 0.01 27 1012.6
20260508002334 73 237 3.0 15.0 0.00 0.01 0.01 29 1012.6
20260508001837 74 204 7.0 15.0 0.00 0.01 0.01 26 1012.6
20260508001333 73 209 2.0 11.0 0.00 0.01 0.01 27 1012.6
20260508000836 73 197 3.0 11.0 0.00 0.01 0.01 28 1012.6
20260508000336 74 133 5.0 11.0 0.00 0.01 0.01 28 1012.6
20260507235834 74 207 7.0 11.0 0.00 0.01 0.01 27 1012.6
20260507235334 74 190 4.0 9.0 0.00 0.01 0.01 30 1012.5
20260507235220 74 220 4.0 11.0 0.00 0.01 0.01 26 1012.5
20260507234720 74 233 5.0 11.0 0.00 0.01 0.01 27 1012.5
20260507234115 74 247 6.0 14.0 0.00 0.01 0.01 28 1012.7
20260507234002 74 261 6.0 11.0 0.00 0.01 0.01 30 1012.7
20260507232834 75 247 8.0 14.0 0.00 0.01 0.01 27 1012.9
20260507232336 75 234 5.0 12.0 0.00 0.01 0.01 27 1012.9
20260507231834 75 196 4.0 9.0 0.00 0.01 0.01 27 1012.9
20260507231336 75 227 4.0 7.0 0.00 0.01 0.01 25 1012.9
20260507231226 75 251 3.0 11.0 0.00 0.01 0.01 27 1013.0
20260507230336 75 179 5.0 11.0 0.00 0.01 0.01 25 1013.0
20260507225835 75 234 5.0 12.0 0.00 0.01 0.01 26 1013.2
20260507225334 75 219 6.0 12.0 0.00 0.01 0.01 25 1013.3
20260507224834 76 154 7.0 13.0 0.00 0.01 0.01 25 1013.4
20260507224334 76 275 5.0 13.0 0.00 0.01 0.01 25 1013.4
20260507223835 76 202 5.0 14.0 0.00 0.01 0.01 24 1013.4
20260507223334 76 235 5.0 14.0 0.00 0.01 0.01 25 1013.5
20260507222834 76 271 8.0 15.0 0.00 0.01 0.01 25 1013.4
20260507222335 76 140 8.0 15.0 0.00 0.01 0.01 26 1013.5
20260507222220 76 321 3.0 9.0 0.00 0.01 0.01 26 1013.5
20260507221336 75 295 5.0 11.0 0.00 0.01 0.01 26 1013.6
20260507221218 76 186 3.0 11.0 0.00 0.01 0.01 26 1013.7
20260507220333 75 197 2.0 10.0 0.00 0.01 0.01 25 1013.7
20260507215835 75 244 3.0 10.0 0.00 0.01 0.01 26 1013.7
20260507215728 75 251 5.0 11.0 0.00 0.01 0.01 26 1013.9
20260507215213 75 212 4.0 11.0 0.00 0.01 0.01 27 1013.8
20260507214330 75 212 2.0 10.0 0.00 0.01 0.01 28 1014.0
20260507213830 75 175 5.0 10.0 0.00 0.01 0.01 27 1014.0
20260507213330 74 240 4.0 17.0 0.00 0.01 0.01 27 1014.3
20260507212831 75 224 7.0 17.0 0.00 0.01 0.01 30 1014.4
20260507212329 74 250 6.0 12.0 0.00 0.01 0.01 28 1014.3
20260507211830 74 176 5.0 10.0 0.00 0.01 0.01 27 1014.4
20260507211330 74 233 7.0 12.0 0.00 0.01 0.01 28 1014.6
20260507210830 75 212 4.0 12.0 0.00 0.01 0.01 28 1014.7
20260507210329 75 137 4.0 13.0 0.00 0.01 0.01 28 1014.7
20260507205832 75 241 7.0 13.0 0.00 0.01 0.01 31 1014.8
20260507205327 74 244 7.0 12.0 0.00 0.01 0.01 29 1015.1
20260507204830 75 252 8.0 14.0 0.00 0.01 0.01 32 1015.1
20260507204328 74 296 4.0 14.0 0.00 0.01 0.01 29 1015.2
20260507203828 74 233 4.0 16.0 0.00 0.01 0.01 30 1015.3
20260507203712 74 258 7.0 16.0 0.00 0.01 0.01 29 1015.5
20260507202826 74 200 5.0 15.0 0.00 0.01 0.01 32 1015.4
20260507202328 74 192 6.0 12.0 0.00 0.01 0.01 31 1015.4
20260507201827 73 231 4.0 11.0 0.00 0.01 0.01 38 1015.6
20260507201720 72 226 3.0 13.0 0.00 0.01 0.01 36 1015.7
20260507200825 72 245 6.0 15.0 0.00 0.01 0.01 32 1015.9
20260507200325 73 180 6.0 15.0 0.00 0.01 0.01 32 1015.9
20260507195825 73 321 4.0 15.0 0.00 0.01 0.01 35 1016.1
20260507195327 73 237 4.0 15.0 0.00 0.01 0.01 34 1016.3
20260507194825 71 278 6.0 11.0 0.00 0.01 0.01 34 1016.3
20260507194325 71 231 3.0 15.0 0.00 0.01 0.01 36 1016.4
20260507193823 72 193 4.0 15.0 0.00 0.01 0.01 35 1016.4
20260507193322 73 217 3.0 12.0 0.00 0.01 0.01 35 1016.5
20260507192917 72 200 6.0 12.0 0.00 0.01 0.01 36 1016.6
20260507192453 73 276 7.0 12.0 0.00 0.01 0.01 38 1016.7
20260507191707 71 262 7.0 15.0 0.00 0.01 0.01 36 1016.9
20260507190817 71 326 5.0 11.0 0.00 0.01 0.01 37 1017.1
20260507190319 71 258 6.0 15.0 0.00 0.01 0.01 38 1017.1
20260507185816 70 227 4.0 15.0 0.00 0.01 0.01 41 1017.2
20260507185317 69 223 7.0 15.0 0.00 0.01 0.01 42 1017.4
20260507184816 69 131 6.0 15.0 0.00 0.01 0.01 42 1017.4
20260507184317 69 217 4.0 11.0 0.00 0.01 0.01 42 1017.4
20260507183816 70 200 4.0 11.0 0.00 0.01 0.01 45 1017.6
20260507183316 68 235 5.0 14.0 0.00 0.01 0.01 45 1017.7
20260507182815 69 207 8.0 14.0 0.00 0.01 0.01 42 1018.0
20260507182315 67 244 5.0 12.0 0.00 0.01 0.01 47 1018.0
20260507181814 67 199 6.0 12.0 0.00 0.01 0.01 45 1018.2
20260507181314 66 238 6.0 12.0 0.00 0.01 0.01 46 1018.2
20260507180813 67 255 6.0 13.0 0.00 0.01 0.01 47 1018.3
20260507180312 67 195 5.0 13.0 0.00 0.01 0.01 48 1018.4
20260507175812 66 254 4.0 13.0 0.00 0.01 0.01 49 1018.5
20260507175315 67 230 6.0 13.0 0.00 0.01 0.01 51 1018.5
20260507174816 66 203 6.0 14.0 0.00 0.01 0.01 51 1018.6
20260507174311 65 235 8.0 14.0 0.00 0.01 0.01 51 1018.7
20260507173810 65 271 7.0 14.0 0.00 0.01 0.01 51 1018.8
20260507173310 64 196 7.0 14.0 0.00 0.01 0.01 52 1019.0
20260507172811 63 238 6.0 14.0 0.00 0.01 0.01 54 1019.1
20260507172310 63 180 9.0 14.0 0.00 0.01 0.01 51 1019.1
20260507171807 64 235 6.0 14.0 0.00 0.01 0.01 51 1019.2
20260507171308 64 252 7.0 14.0 0.00 0.01 0.01 52 1019.4
20260507170809 62 213 6.0 14.0 0.00 0.01 0.01 56 1019.4
20260507170658 62 212 7.0 14.0 0.00 0.01 0.01 54 1019.5
20260507165807 62 240 4.0 14.0 0.00 0.01 0.01 56 1019.5
20260507165649 61 259 4.0 14.0 0.00 0.01 0.01 56 1019.6
20260507164806 61 258 6.0 14.0 0.00 0.01 0.01 58 1019.8
20260507164306 61 207 6.0 14.0 0.00 0.01 0.01 58 1019.7
20260507163806 60 306 7.0 14.0 0.00 0.01 0.01 60 1019.8
20260507163656 59 269 5.0 14.0 0.00 0.01 0.01 60 1020.0
20260507163150 59 276 7.0 14.0 0.00 0.01 0.01 60 1020.0
20260507162307 59 176 7.0 14.0 0.00 0.01 0.01 60 1020.1
20260507162149 59 272 6.0 14.0 0.00 0.01 0.01 61 1020.1
20260507161302 58 268 4.0 13.0 0.00 0.01 0.01 62 1020.1
20260507160801 57 226 6.0 13.0 0.00 0.01 0.01 63 1020.1
20260507160649 56 238 7.0 12.0 0.00 0.01 0.01 63 1020.1
20260507155800 57 235 6.0 12.0 0.00 0.01 0.01 66 1020.2
20260507155259 57 213 6.0 11.0 0.00 0.01 0.01 66 1020.2
20260507154800 56 216 4.0 9.0 0.00 0.01 0.01 66 1020.2
20260507154541 55 165 4.0 11.0 0.00 0.01 0.01 70 1020.1
20260507154428 55 295 4.0 9.0 0.00 0.01 0.01 68 1020.2
20260507153648 54 164 4.0 11.0 0.00 0.01 0.01 73 1020.2
20260507152756 53 217 5.0 9.0 0.00 0.01 0.01 74 1020.2
20260507152300 52 227 5.0 10.0 0.00 0.01 0.01 77 1020.3
20260507151755 52 224 5.0 10.0 0.00 0.01 0.01 77 1020.4
20260507151651 51 288 4.0 10.0 0.00 0.01 0.01 81 1020.5
20260507150756 50 175 3.0 10.0 0.00 0.01 0.01 81 1020.6
20260507150253 49 266 5.0 10.0 0.00 0.01 0.01 81 1020.7
20260507145753 49 258 6.0 11.0 0.00 0.01 0.01 83 1020.6
20260507145255 48 268 4.0 11.0 0.00 0.01 0.01 85 1020.6
20260507144751 47 261 3.0 10.0 0.00 0.01 0.01 86 1020.7
20260507144638 47 286 6.0 10.0 0.00 0.01 0.01 87 1020.9
20260507143749 46 186 2.0 10.0 0.00 0.01 0.01 88 1020.9
20260507143249 45 237 4.0 10.0 0.00 0.01 0.01 88 1020.9
20260507142847 45 261 5.0 11.0 0.00 0.01 0.01 90 1021.1
20260507142422 44 233 5.0 11.0 0.00 0.01 0.01 89 1021.1
20260507141247 44 243 3.0 7.0 0.00 0.01 0.01 91 1021.1
20260507140749 44 226 4.0 6.0 0.00 0.01 0.01 91 1021.1
20260507140247 44 247 3.0 6.0 0.00 0.01 0.01 92 1021.0
20260507140138 43 245 2.0 6.0 0.00 0.01 0.01 92 1021.0
20260507135247 43 247 4.0 10.0 0.00 0.01 0.01 92 1021.1
20260507134745 43 234 4.0 10.0 0.00 0.01 0.01 92 1021.2
20260507134247 42 285 4.0 9.0 0.00 0.01 0.01 92 1021.2
20260507133746 42 274 5.0 9.0 0.00 0.01 0.01 92 1021.3
20260507133246 42 257 4.0 7.0 0.00 0.01 0.01 92 1021.2
20260507132746 42 241 4.0 5.0 0.00 0.01 0.01 92 1021.3
20260507132632 42 272 3.0 9.0 0.00 0.01 0.01 92 1021.3
20260507131742 42 350 2.0 9.0 0.00 0.01 0.01 92 1021.2
20260507131242 42 221 3.0 9.0 0.00 0.01 0.01 92 1021.2